Location: McFarlands Corners
(41.4117°N, 81.3382°W)
Time: 08:28:42
(UTC+00:00)

Vanguard 1 Rocket - Pass Details

Date: 16 February 2026
Orbit: 653 x 4214 km, 34.3° (Epoch: 12 March)

Event Time Altitude Azimuth Distance (km) Brightness Sun altitude
Rises 00:49:17 0° 281° (W) 6,691 13.3 -21.2°
Reaches altitude 10° 00:53:22 10° 276° (W) 6,065 12.7 -22.0°
Maximum altitude 01:12:52 47° 211° (SSW) 4,870 11.1 -25.6°
Drops below altitude 10° 01:36:23 10° 147° (SSE) 7,103 11.5 -30.0°
Enters shadow 01:37:42 - 146° (SE) 7,281 11.6 -30.2°
Sets 01:41:48 0° 142° (SE) 7,850 - -31.0°
